sat.trackr.live / text

‹ back to catalog

STARLINK-5795

NORAD 56039 · 2023-042BF

PAYLOAD ACTIVE UNKNOWN

§ Identity

Operator
Country
US
Launch date
2023-03-24
Launch site
AFETR
Launch vehicle
Mass (kg)
RCS (m²)

Purposes: comms

External: N2YO · Heavens-Above · Gunter

§ Orbital elements

Epoch: 2026-05-24T21:25:16.447008Z

Period
94.27 min
Inclination
43.0042°
Eccentricity
0.0001524
Mean motion
15.27580232 rev/d
Perigee alt
482.0 km
Apogee alt
484.1 km
Semi-major
6,861.2 km
B*
4.9557e-5
RAAN
320.6269°
Arg perigee
271.0890°
Mean anomaly
88.9787°
Rev number
17,485

§ Raw data

STARLINK-57951 56039U 23042BF  26144.89255147  .00001102  00000+0  49557-4 0  99992 56039  43.0042 320.6269 0001524 271.0890  88.9787 15.27580232174852

JSON: /api/v1/satellites/56039 · /tle

For live sub-satellite position, see the globe view (requires WebGL).

§ Visibility from observer

Set your observer location to see the next 7 days of passes ≥ 10°. The values pass through the URL so the page stays shareable.

No JS? Fill the form by hand. The geolocation button needs JavaScript.